STARLINK-32440, 61714

Orbit data source: Space-Track

STARLINK-32440, 61714 is a payload satellite owned by SpaceX/Seattle (US) in LEO that was launched on Wed, 30 Oct 2024 UTC via an FALCON 9 launch vehicle from the Air Force Eastern Test Range (AFETR). Payload-class satellites include a variety of spacecraft equipped with specific instruments for various scientific and technological missions. These include communications satellites like Starlink; space stations such as the ISS; scientific satellites like the Hubble; Earth observation satellites from companies like Planet Labs, Umbra, and HawkEye 360; GPS; miniature CubeSats for education and research; and military/defense satellites.

Loading next visibility...
Identifier
61714, 2024-196H
Orbit
LEO
Country
Flag of USUS
Related business
Manufacturer
SpaceX/Seattle
Mission
Operational Commercial Communications
Bus & Motor
STARLINK V2M, Unknown motor
Mass
730 kg wet, ~700 kg dry
Launch date (UTC)
2024-10-30 (1 year ago)
Launch vehicle
FALCON 9
Launch site
Air Force Eastern Test Range (AFETR)
Object type
Payload
Rocket body
Debris
Shape & HBR
Box + 2 Pan, 17.7 m
Radar Cross Section
33.884 m², Large (>1 m²)

Expand to show TLE details & history
Last TLE update: 16 hours ago

TLE from 16 hours ago
0 STARLINK-32440
1 61714U 24196H   25312.70991683  .00000582  00000-0  31774-4 0  9998
2 61714  53.1632 303.3092 0001267  79.6413 280.4730 15.30194001 58637
Epoch: 2025-11-08T17:02Z
TLE epoch observation values (Epoch: 2025-11-08T17:02:16.814Z)
Latitude
-0.00005°
Longitude
-0.39652°
Altitude
475.975 km
Speed
7.629 km/s
True Right ascension
20h 13m 14s
True Declination
0° 00' 00"
Sunlit
Object was in daylight at epoch
Visualization orbit readout
Latitude
Unknown
Longitude
Unknown
Altitude
Unknown
Speed
Unknown
Apparent Right ascension
Unknown
Apparent Declination
Unknown
Sunlit
N/A
Visualization observer readout
Local Sidereal Time
05:38:39
Azimuth
Unknown
Elevation
Unknown
Doppler factor
Unknown
Orbital elements
Apogee altitude
476.357 km
Perigee altitude
474.621 km
Semi-major axis
6,853.626 km
Eccentricity
0.00013
Inclination
53.1632°
RAAN
303.3092°
Arg. of periapsis
79.6413°
True anomaly
280.45872°
Mean anomaly
280.473°
Eccentric anomaly
280.46586°
Mean motion
3.82527 °/min
Orbital period
94.11 mins
BSTAR
0.000031774
Loading maneuver chart data...
Computing Atmospheric mass density...
Loading historical data...
Loading historical data...
Loading historical data...
Loading historical data...
Loading historical data...
Loading historical data...
Loading historical data...

Documentation

Showing up to 5 results
|